[[{"header":{"parameterUnit":"m.s-1","parameterCategory":2,"la1":30.2991,"la2":30.254,"lo1":-89.0895,"lo2":-89.0444,"dy":0.0017,"dx":0.0017,"nx":28,"ny":28,"refTime":"2024-10-02T21:00:00:Z","depth":"0","parameterNumber":2,"parameterNumberName":"U-component_of_CURRENTS"},"data":[0,0,0,0,0,0,0,0,0,0,0,0,0,0,0,0,0,0,0,0,0,0,0,0,0,0,0,0,0,0,0,0,0,0,0,0,0,0,0,0,0,0,0,0,0,0,0,0,0,0,0,0,0,0,0,0,0,0,0.2383,0.2383,0,0.2363,0.2362,0.2362,0.228,0.2278,0.2276,0.2275,0.2199,0.2198,0.2198,0,0,0,0,0,0,0,0,0,0,0,0,0,0.2398,0.2398,0.2383,0.2383,0.2383,0.2363,0.2362,0.2362,0.228,0.2278,0.2276,0.2274,0.2199,0.2198,0.2198,0,0,0,0,0,0,0,0,0,0,0,0,0,0.2383,0.2397,0.2383,0.2342,0.2338,0.2363,0.2362,0.2362,0.228,0.2278,0.2275,0.2273,0.2199,0.2198,0.2198,0.2243,0,0,0.2196,0.2195,0,0,0,0,0,0,0,0,0.2384,0.2383,0.2348,0.2345,0.2341,0.2323,0.234,0.232,0.2281,0.23,0.2275,0.2272,0.2239,0.2235,0.2234,0.224,0.2237,0.2196,0.2195,0.2195,0.2195,0,0,0,0,0,0,0,0.2385,0.2383,0.2373,0.2348,0.2344,0.234,0.2335,0.2336,0.2281,0.2298,0.2292,0.2295,0.2236,0.2235,0.2231,0.2235,0.2196,0.2195,0.2195,0.2194,0.231,0.2313,0,0,0,0,0,0,0.2393,0.2384,0.2373,0.2372,0.236,0.2342,0.2336,0.2329,0.2281,0.2273,0.2297,0.2291,0.2237,0.2232,0.2228,0.2314,0.2195,0.2194,0.2194,0.2306,0.231,0.2314,0,0,0,0,0,0,0.2394,0.2392,0.2374,0.238,0.2378,0.2344,0.2338,0.233,0.2328,0.2282,0.2271,0.2302,0.2235,0.2229,0.2243,0.2308,0.2194,0.2193,0.2302,0.2308,0.2312,0.2463,0,0,0,0,0,0,0.2394,0.2392,0.2405,0.2381,0.2378,0.2415,0.2341,0.2332,0.2335,0.2327,0.2284,0.2274,0.2232,0.2244,0.2242,0.2305,0.2193,0.2298,0.2305,0.2311,0.2453,0.2472,0.2489,0,0,0,0,0,0.2395,0.243,0.2405,0.2405,0.2391,0.2418,0.2418,0.2383,0.2338,0.2365,0.2325,0.2275,0.2285,0.2247,0.2243,0.2307,0.2295,0.2303,0.231,0.2445,0.2469,0.2488,0,0,0,0,0,0,0.2463,0.2424,0.2397,0.2422,0.2429,0.2405,0.2433,0.2399,0.239,0.2378,0.2312,0.2302,0.2344,0.2311,0.227,0.2363,0.2286,0.2293,0.239,0.2411,0.2429,0.2393,0.2192,0,0,0,0,0,0.248,0.2486,0.2461,0.2492,0.2494,0.2463,0.2471,0.2449,0.2433,0.2424,0.2392,0.2371,0.2379,0.2378,0.2379,0.2426,0.2413,0.247,0.2488,0.2503,0.2475,0.2522,0.2541,0.234,0.234,0.234,0,0,0.252,0.2501,0.2507,0.2506,0.2503,0.2525,0.2462,0.2491,0.2506,0.2422,0.2443,0.2434,0.2407,0.246,0.2476,0.2434,0.257,0.2513,0.2525,0.2488,0.2532,0.2551,0.2568,0.2345,0.2344,0.2344,0,0,0.2598,0.2583,0.2604,0.2611,0.2613,0.2599,0.261,0.2596,0.2586,0.2613,0.2563,0.2585,0.2589,0.2586,0.2582,0.27,0.2664,0.2719,0.2774,0.2824,0.284,0.2853,0.2929,0.2948,0.2725,0.2725,0.2726,0,0.2652,0.2646,0.2628,0.2651,0.2653,0.2632,0.2656,0.267,0.2664,0.2656,0.264,0.2655,0.2646,0.2689,0.2733,0.2739,0.2763,0.2695,0.2845,0.2858,0.2869,0.2942,0.2961,0.2734,0.2733,0.2732,0.2731,0,0.2721,0.2724,0.2751,0.2748,0.277,0.2798,0.2796,0.2819,0.28,0.2789,0.2827,0.2826,0.2818,0.2856,0.2825,0.2912,0.2907,0.2866,0.2785,0.2898,0.2969,0.2986,0.2745,0.2742,0.274,0.2738,0,0,0.2788,0.2791,0.2792,0.2779,0.2806,0.2818,0.2874,0.2884,0.2888,0.2922,0.2929,0.2982,0.2961,0.2956,0.2951,0.2997,0.3137,0.2969,0.2968,0.3034,0.3275,0.3258,0.3275,0.3124,0.3126,0.3128,0.3317,0,0.2829,0.2856,0.2855,0.2885,0.2885,0.289,0.2929,0.2949,0.2961,0.2983,0.3001,0.3024,0.3009,0.302,0.307,0.3099,0.3176,0.309,0.3161,0.3163,0.3125,0.3291,0.3144,0.3297,0.3333,0.3336,0.3338,0,0.2852,0.2859,0.2882,0.288,0.2883,0.2914,0.2928,0.2963,0.3008,0.3018,0.3054,0.3064,0.314,0.3112,0.3236,0.3183,0.3241,0.3275,0.3282,0.3205,0.3175,0.3178,0.3325,0.3153,0.3362,0.336,0.3359,0,0.2823,0.2856,0.2857,0.2865,0.2892,0.2901,0.292,0.2961,0.2975,0.3043,0.3062,0.3141,0.317,0.326,0.3335,0.33,0.3471,0.343,0.3483,0.3484,0.3335,0.3318,0.3298,0.3537,0.3536,0.3536,0.3535,0,0.2814,0.2808,0.2839,0.2835,0.2836,0.2872,0.2882,0.2916,0.2969,0.2993,0.3068,0.3111,0.3204,0.3303,0.338,0.3494,0.3521,0.352,0.3535,0.3393,0.3379,0.3196,0.3121,0.3543,0.3541,0.354,0.3539,0,0.2754,0.2781,0.2772,0.2803,0.2811,0.2807,0.2843,0.2858,0.2921,0.2965,0.2995,0.3104,0.3242,0.3355,0.3505,0.3538,0.3546,0.3691,0.3536,0.3528,0.3389,0.3329,0.3256,0.3171,0.3791,0.3791,0.3792,0,0.2715,0.2708,0.273,0.2725,0.2732,0.2741,0.2751,0.2817,0.2842,0.2959,0.298,0.3129,0.322,0.345,0.3563,0.3736,0.3575,0.3671,0.3564,0.3386,0.3331,0.3199,0.3122,0.3467,0.3465,0.3463,0.3462,0,0.2635,0.2647,0.2649,0.2642,0.2647,0.2652,0.2678,0.2692,0.2783,0.2839,0.294,0.3034,0.3259,0.3346,0.3551,0.3637,0.3445,0.3641,0.3481,0.3104,0.2931,0.2852,0.336,0.3446,0.3448,0.3449,0.345,0.345,0.2569,0.255,0.2557,0.2548,0.2554,0.2553,0.2529,0.2591,0.2628,0.2708,0.2854,0.2956,0.3092,0.3361,0.343,0.3373,0.3389,0.3246,0.321,0.311,0.2937,0.3435,0.3507,0.3509,0.3511,0.3512,0.3513,0,0.2476,0.2473,0.246,0.2444,0.2416,0.2454,0.2468,0.2445,0.2466,0.2611,0.2708,0.2807,0.2879,0.2984,0.3009,0.2913,0.2826,0.281,0.2548,0.2513,0.2975,0.2863,0.2766,0.2766,0.2766,0.2766,0.2766,0.2766,0.2427,0.2385,0.2386,0.2314,0.2299,0.2234,0.2222,0.2227,0.2295,0.2348,0.2405,0.2512,0.2571,0.2574,0.2459,0.2431,0.2211,0.2149,0.2149,0.2401,0.2436,0.2468,0.2343,0.2138,0.2137,0.1567,0.1562,0.1558]},{"header":{"parameterUnit":"m.s-1","parameterCategory":2,"la1":30.2991,"la2":30.254,"lo1":-89.0895,"lo2":-89.0444,"dy":0.0017,"dx":0.0017,"nx":28,"ny":28,"refTime":"2024-10-02T21:00:00:Z","depth":"0","parameterNumber":3,"parameterNumberName":"V-component_of_CURRENTS"},"data":[0,0,0,0,0,0,0,0,0,0,0,0,0,0,0,0,0,0,0,0,0,0,0,0,0,0,0,0,0,0,0,0,0,0,0,0,0,0,0,0,0,0,0,0,0,0,0,0,0,0,0,0,0,0,0,0,0,0,-0.0229,-0.0229,0,-0.025,-0.0251,-0.0251,-0.0234,-0.0234,-0.0233,-0.0232,-0.0255,-0.0257,-0.0258,0,0,0,0,0,0,0,0,0,0,0,0,0,-0.0232,-0.0231,-0.0229,-0.0229,-0.023,-0.025,-0.0251,-0.0251,-0.0235,-0.0234,-0.0233,-0.0232,-0.0255,-0.0256,-0.0258,0,0,0,0,0,0,0,0,0,0,0,0,0,-0.0239,-0.0231,-0.0229,-0.0224,-0.0224,-0.025,-0.0251,-0.0251,-0.0235,-0.0234,-0.0233,-0.0232,-0.0255,-0.0256,-0.0258,-0.0289,0,0,-0.0264,-0.0264,0,0,0,0,0,0,0,0,-0.0238,-0.0239,-0.0225,-0.0225,-0.0225,-0.0239,-0.026,-0.0264,-0.0235,-0.023,-0.0232,-0.0231,-0.0251,-0.0253,-0.0259,-0.029,-0.0291,-0.0264,-0.0265,-0.0266,-0.0266,0,0,0,0,0,0,0,-0.0238,-0.0238,-0.0237,-0.0225,-0.0225,-0.0241,-0.024,-0.0261,-0.0245,-0.023,-0.0229,-0.0233,-0.0251,-0.0257,-0.0259,-0.0291,-0.0264,-0.0265,-0.0267,-0.0267,-0.0291,-0.029,0,0,0,0,0,0,-0.0234,-0.0237,-0.0236,-0.0237,-0.023,-0.0242,-0.0241,-0.0235,-0.0245,-0.0246,-0.0234,-0.0232,-0.0254,-0.0257,-0.026,-0.0237,-0.0266,-0.0267,-0.0269,-0.0291,-0.0291,-0.029,0,0,0,0,0,0,-0.0234,-0.0234,-0.0235,-0.0239,-0.024,-0.0242,-0.0236,-0.0236,-0.0238,-0.0248,-0.0248,-0.0236,-0.0254,-0.0257,-0.0263,-0.024,-0.0268,-0.027,-0.0292,-0.0291,-0.029,-0.0231,0,0,0,0,0,0,-0.0234,-0.0233,-0.0238,-0.0238,-0.024,-0.0256,-0.0237,-0.0237,-0.0242,-0.024,-0.025,-0.0251,-0.0253,-0.026,-0.0265,-0.0243,-0.0271,-0.0292,-0.0291,-0.0291,-0.0233,-0.0228,-0.0223,0,0,0,0,0,-0.0234,-0.0251,-0.0237,-0.0238,-0.0242,-0.0257,-0.026,-0.0258,-0.0244,-0.0254,-0.0243,-0.0251,-0.0258,-0.0262,-0.0268,-0.0245,-0.0293,-0.0292,-0.0291,-0.0235,-0.0229,-0.0224,0,0,0,0,0,0,-0.0272,-0.025,-0.0236,-0.0249,-0.0251,-0.0254,-0.0269,-0.026,-0.0262,-0.0256,-0.0254,-0.0255,-0.0249,-0.0264,-0.0268,-0.025,-0.0274,-0.0274,-0.023,-0.0224,-0.0219,-0.0177,-0.0273,0,0,0,0,0,-0.0277,-0.0274,-0.0262,-0.0277,-0.0273,-0.0268,-0.0276,-0.027,-0.0269,-0.0268,-0.027,-0.0265,-0.0252,-0.0251,-0.0257,-0.0257,-0.0264,-0.0245,-0.024,-0.0236,-0.0206,-0.02,-0.0191,-0.0287,-0.0287,-0.0287,0,0,-0.0305,-0.0288,-0.0293,-0.0284,-0.0282,-0.0262,-0.027,-0.0282,-0.025,-0.0273,-0.0247,-0.0258,-0.025,-0.0237,-0.0235,-0.0244,-0.0219,-0.0234,-0.023,-0.0202,-0.0198,-0.0188,-0.018,-0.0286,-0.0286,-0.0286,0,0,-0.0334,-0.0332,-0.0322,-0.031,-0.0299,-0.0286,-0.0285,-0.0281,-0.0265,-0.0255,-0.0241,-0.0229,-0.0242,-0.0207,-0.0192,-0.0168,-0.0197,-0.0187,-0.0122,-0.0118,-0.0109,-0.0102,-0.0122,-0.0117,-0.018,-0.018,-0.018,0,-0.0368,-0.0328,-0.0331,-0.0303,-0.0279,-0.0285,-0.0252,-0.0242,-0.024,-0.0209,-0.0242,-0.0201,-0.021,-0.0135,-0.0124,-0.0151,-0.0172,-0.0143,-0.0109,-0.0102,-0.0095,-0.0118,-0.0113,-0.0177,-0.0177,-0.0177,-0.0178,0,-0.0358,-0.0326,-0.0325,-0.0265,-0.0254,-0.024,-0.0206,-0.0192,-0.0179,-0.0156,-0.0112,-0.0124,-0.0089,-0.0097,-0.0102,-0.0045,-0.0085,-0.0108,-0.0119,-0.0081,-0.0109,-0.0105,-0.0172,-0.0173,-0.0174,-0.0175,0,0,-0.0413,-0.033,-0.0321,-0.0265,-0.022,-0.0203,-0.0149,-0.0085,-0.0026,-0.0041,0.0032,0.005,0.0036,0.0053,0.0041,0.0048,0.0061,-0.0009,-0.001,-0.002,0.0045,0.0047,0.0051,0.0032,0.0034,0.0035,-0.0003,0,-0.0389,-0.0309,-0.0274,-0.0192,-0.0138,-0.0106,-0.0047,0.0003,0.0033,0.0086,0.0102,0.0141,0.0097,0.0106,0.0112,0.0077,0.0078,0.0072,0.0003,0.0001,0.0007,0.006,0.0095,0.0068,0.0002,0.0002,0.0003,0,-0.0357,-0.0296,-0.0208,-0.0097,-0.0073,-0.0032,0.0082,0.0129,0.0203,0.0221,0.0262,0.0256,0.0293,0.0225,0.0208,0.0196,0.0135,0.0095,0.0092,0.0088,0.0014,0.0023,0.0078,-0.0039,0.0009,0.0009,0.0008,0,-0.0337,-0.0238,-0.0154,-0.012,-0.0016,0.0037,0.0089,0.0173,0.0237,0.0306,0.0341,0.0369,0.0375,0.0325,0.0248,0.0218,0.0204,0.0148,0.0098,0.0095,0.0115,0.0112,0.0066,0.014,0.014,0.014,0.014,0,-0.0291,-0.0223,-0.0137,-0.0087,0.0018,0.007,0.0178,0.0233,0.0316,0.0406,0.0407,0.047,0.0395,0.0379,0.029,0.0222,0.0236,0.0137,0.0105,0.0132,0.0131,0.0021,-0.0044,0.0139,0.0139,0.0139,0.0139,0,-0.0266,-0.0214,-0.0111,-0.0002,0.0035,0.0107,0.0224,0.0306,0.0365,0.0477,0.05,0.0541,0.0531,0.0457,0.0375,0.0281,0.0161,0.0178,0.0206,0.018,0.0019,-0.0043,-0.0087,-0.0127,0.0116,0.0116,0.0116,0,-0.0238,-0.0181,-0.0061,0.0002,0.0056,0.0159,0.024,0.0322,0.041,0.0534,0.0596,0.0622,0.0684,0.0572,0.043,0.0303,0.0186,0.0207,0.0175,0.0047,-0.0047,-0.0094,-0.0128,0.0201,0.0201,0.0202,0.0203,0,-0.0176,-0.0143,-0.0061,0.0057,0.0148,0.0257,0.0372,0.0445,0.0555,0.0655,0.0785,0.0844,0.0769,0.0689,0.0507,0.0399,0.0149,0.0215,0.0088,0.0042,-0.0013,-0.008,0.0157,0.0209,0.0208,0.0207,0.0207,0.0207,-0.0136,-0.0075,0.0021,0.0133,0.0235,0.0359,0.0459,0.0583,0.0729,0.0917,0.0935,0.108,0.0921,0.0709,0.0521,0.0204,0.0192,0.0092,0.0031,-0.0003,-0.0033,0.0214,0.0228,0.0227,0.0227,0.0226,0.0226,0,-0.0076,-0.0006,0.01,0.0236,0.0349,0.0391,0.056,0.0674,0.0857,0.105,0.1186,0.1241,0.1018,0.0745,0.0317,0.0061,-0.0031,-0.0082,-0.0147,-0.0172,0.0055,0.0067,0.0042,0.0042,0.0042,0.0042,0.0043,0.0043,-0.0032,0.0065,0.0118,0.0308,0.0407,0.057,0.067,0.0842,0.101,0.1273,0.1422,0.1506,0.13,0.052,-0.003,-0.0147,-0.0329,-0.0348,-0.0456,-0.0323,-0.0312,-0.0302,-0.0307,-0.041,-0.041,-0.0641,-0.0643,-0.0645]}],[{"header":{"parameterUnit":"m.s-1","parameterCategory":2,"la1":30.2991,"la2":30.254,"lo1":-89.0895,"lo2":-89.0444,"dy":0.0017,"dx":0.0017,"nx":28,"ny":28,"refTime":"2024-10-02T21:00:00:Z","depth":"2","parameterNumber":2,"parameterNumberName":"U-component_of_CURRENTS"},"data":[0,0,0,0,0,0,0,0,0,0,0,0,0,0,0,0,0,0,0,0,0,0,0,0,0,0,0,0,0,0,0,0,0,0,0,0,0,0,0,0,0,0,0,0,0,0,0,0,0,0,0,0,0,0,0,0,0,0,0.1742,0.1742,0,0.1779,0.178,0.178,0.1785,0.1784,0.1784,0.1783,0.1872,0.1875,0.1878,0,0,0,0,0,0,0,0,0,0,0,0,0,0.1718,0.1718,0.1742,0.1742,0.1743,0.1779,0.178,0.178,0.1785,0.1784,0.1784,0.1783,0.1871,0.1875,0.1878,0,0,0,0,0,0,0,0,0,0,0,0,0,0.1739,0.1718,0.1742,0.1749,0.175,0.1779,0.178,0.178,0.1785,0.1784,0.1784,0.1783,0.187,0.1874,0.1878,0.1915,0,0,0.1891,0.1892,0,0,0,0,0,0,0,0,0.1738,0.174,0.1748,0.1749,0.175,0.1776,0.1804,0.1828,0.1785,0.1772,0.1783,0.1783,0.1845,0.1851,0.1859,0.1919,0.1923,0.1891,0.1894,0.1895,0.1896,0,0,0,0,0,0,0,0.1736,0.1739,0.1757,0.1748,0.1749,0.1766,0.1768,0.1808,0.1812,0.1773,0.1773,0.1777,0.1846,0.1855,0.1861,0.1924,0.1891,0.1895,0.1897,0.1899,0.2112,0.2115,0,0,0,0,0,0,0.173,0.1737,0.1755,0.1758,0.1742,0.1766,0.1769,0.1769,0.1811,0.1816,0.1778,0.1777,0.1849,0.1857,0.1865,0.2027,0.1895,0.1899,0.1901,0.2108,0.2112,0.2116,0,0,0,0,0,0,0.1729,0.1731,0.1754,0.1748,0.1752,0.1767,0.1767,0.177,0.1782,0.1814,0.182,0.1788,0.1848,0.1859,0.1888,0.2026,0.1901,0.1905,0.2105,0.211,0.2114,0.2277,0,0,0,0,0,0,0.1728,0.173,0.1747,0.1748,0.1752,0.1783,0.1768,0.1771,0.1785,0.1785,0.1825,0.1832,0.1849,0.1882,0.1892,0.2029,0.1908,0.2101,0.2107,0.2113,0.2268,0.2287,0.2304,0,0,0,0,0,0.1727,0.1754,0.1748,0.1751,0.1769,0.1784,0.1789,0.1797,0.1786,0.1804,0.1809,0.1831,0.1931,0.1885,0.1898,0.204,0.2098,0.2105,0.2112,0.226,0.2283,0.2303,0,0,0,0,0,0,0.1768,0.1757,0.175,0.1776,0.1782,0.1785,0.1818,0.1802,0.182,0.1833,0.1836,0.1844,0.1933,0.194,0.189,0.2116,0.2035,0.2044,0.2143,0.2165,0.2183,0.2196,0.1911,0,0,0,0,0,0.178,0.178,0.1782,0.1799,0.1817,0.1814,0.1827,0.1829,0.1837,0.1845,0.1879,0.1924,0.1975,0.2023,0.2061,0.2166,0.2157,0.2274,0.2292,0.2307,0.2325,0.239,0.2416,0.2139,0.2139,0.2139,0,0,0.1793,0.1792,0.1791,0.1806,0.1822,0.1873,0.1822,0.1857,0.1915,0.1856,0.1964,0.1972,0.2003,0.2124,0.2173,0.2151,0.2382,0.2316,0.233,0.2339,0.2401,0.2428,0.2451,0.2144,0.2143,0.2143,0,0,0.1837,0.1834,0.1864,0.1882,0.1912,0.1923,0.1931,0.1961,0.1999,0.2075,0.2058,0.2126,0.222,0.2279,0.2315,0.245,0.2451,0.2489,0.2629,0.2693,0.2716,0.2737,0.276,0.2782,0.2528,0.2529,0.2529,0,0.1852,0.1896,0.1878,0.1931,0.1966,0.1949,0.2016,0.2059,0.2097,0.2155,0.214,0.2279,0.2312,0.2442,0.2509,0.2503,0.2506,0.2547,0.2718,0.2738,0.2756,0.2775,0.2796,0.2537,0.2536,0.2536,0.2535,0,0.1942,0.1975,0.2005,0.2062,0.2101,0.2148,0.2204,0.2272,0.2319,0.2368,0.2498,0.2519,0.2599,0.2656,0.2637,0.2803,0.2751,0.2708,0.2664,0.2794,0.2805,0.2824,0.255,0.2547,0.2544,0.2542,0,0,0.1954,0.2043,0.2054,0.2112,0.2174,0.2223,0.2342,0.245,0.254,0.2628,0.2749,0.2869,0.2861,0.2896,0.2886,0.2975,0.312,0.2921,0.292,0.2945,0.3238,0.2946,0.2938,0.3105,0.311,0.3113,0.3194,0,0.2023,0.2148,0.2172,0.23,0.2376,0.2412,0.2517,0.2621,0.2706,0.2827,0.2897,0.2989,0.2957,0.2991,0.3081,0.3098,0.3179,0.31,0.3107,0.3107,0.2833,0.2954,0.2778,0.2812,0.3212,0.3215,0.3217,0,0.2118,0.2181,0.232,0.2434,0.2474,0.2553,0.2718,0.2803,0.2952,0.3015,0.3113,0.3129,0.3264,0.3197,0.3329,0.3276,0.3281,0.3293,0.3295,0.2978,0.2851,0.2747,0.2831,0.3248,0.3246,0.3244,0.3241,0,0.2172,0.2293,0.241,0.245,0.2576,0.2665,0.2739,0.2883,0.2946,0.3116,0.3159,0.3303,0.333,0.3414,0.3408,0.3397,0.3511,0.3491,0.3231,0.3209,0.3035,0.2988,0.3586,0.3586,0.3586,0.3586,0.3586,0,0.224,0.2335,0.2452,0.2513,0.2647,0.2732,0.286,0.2959,0.3059,0.3128,0.3231,0.3273,0.3384,0.3428,0.3465,0.3375,0.3549,0.327,0.3221,0.308,0.3038,0.3387,0.3363,0.3589,0.3588,0.3587,0.3587,0,0.2299,0.2361,0.2497,0.2637,0.2673,0.2785,0.2865,0.2935,0.3039,0.3118,0.3158,0.3268,0.3329,0.3375,0.3482,0.3368,0.3375,0.3287,0.3076,0.2996,0.3032,0.3016,0.3067,0.3057,0.3049,0.3043,0.3037,0,0.2361,0.2436,0.257,0.2601,0.2662,0.2779,0.2815,0.292,0.2961,0.3092,0.3117,0.3191,0.3152,0.315,0.3099,0.3064,0.3192,0.2782,0.2717,0.3037,0.2986,0.2982,0.2977,0.2589,0.258,0.2573,0.2567,0,0.2459,0.25,0.257,0.2615,0.2668,0.2712,0.2782,0.2799,0.2902,0.2901,0.2918,0.2895,0.2885,0.2729,0.2615,0.2589,0.2779,0.2618,0.3084,0.2678,0.2574,0.2526,0.2541,0.2503,0.2509,0.2514,0.2518,0.252,0.2518,0.255,0.2588,0.2622,0.2644,0.2634,0.2634,0.264,0.2614,0.2567,0.2647,0.2493,0.2489,0.2201,0.2141,0.2128,0.2303,0.2211,0.2242,0.2279,0.214,0.2019,0.182,0.1822,0.1824,0.1826,0.1828,0,0.2545,0.2543,0.2573,0.2569,0.2528,0.2572,0.2575,0.248,0.2365,0.2295,0.2178,0.1885,0.1729,0.1805,0.1672,0.1576,0.1672,0.1523,0.1692,0.1754,0.1809,0.1655,0.1203,0.1201,0.1199,0.1198,0,0,0.2567,0.2543,0.2516,0.2435,0.2422,0.2329,0.231,0.2121,0.2022,0.1751,0.1611,0.1591,0.1669,0.1394,0.136,0.1278,0.1513,0.1223,0.1727,0.1987,0.2041,0.2201,0.2028,0,0,0,0,0]},{"header":{"parameterUnit":"m.s-1","parameterCategory":2,"la1":30.2991,"la2":30.254,"lo1":-89.0895,"lo2":-89.0444,"dy":0.0017,"dx":0.0017,"nx":28,"ny":28,"refTime":"2024-10-02T21:00:00:Z","depth":"2","parameterNumber":3,"parameterNumberName":"V-component_of_CURRENTS"},"data":[0,0,0,0,0,0,0,0,0,0,0,0,0,0,0,0,0,0,0,0,0,0,0,0,0,0,0,0,0,0,0,0,0,0,0,0,0,0,0,0,0,0,0,0,0,0,0,0,0,0,0,0,0,0,0,0,0,0,0.0194,0.0194,0,0.0153,0.0152,0.0151,0.0105,0.0105,0.0104,0.0104,0.0048,0.0047,0.0046,0,0,0,0,0,0,0,0,0,0,0,0,0,0.02,0.02,0.0194,0.0194,0.0194,0.0153,0.0152,0.0151,0.0105,0.0104,0.0104,0.0103,0.0048,0.0047,0.0046,0,0,0,0,0,0,0,0,0,0,0,0,0,0.018,0.02,0.0194,0.0167,0.0165,0.0153,0.0152,0.0151,0.0105,0.0104,0.0104,0.0103,0.0049,0.0047,0.0046,0.005,0,0,0.0041,0.004,0,0,0,0,0,0,0,0,0.0181,0.0179,0.0172,0.0169,0.0166,0.0135,0.0133,0.0117,0.0105,0.0125,0.0104,0.0103,0.0078,0.0074,0.0065,0.0048,0.0045,0.0041,0.004,0.0039,0.0039,0,0,0,0,0,0,0,0.0182,0.0181,0.0176,0.0171,0.0168,0.0146,0.0142,0.013,0.0104,0.0124,0.0121,0.012,0.0076,0.0066,0.0063,0.0045,0.0041,0.0039,0.0038,0.0038,0.0004,0.0004,0,0,0,0,0,0,0.0195,0.0182,0.0177,0.0175,0.0174,0.0146,0.0142,0.0144,0.0105,0.0099,0.012,0.0118,0.0069,0.0065,0.0061,0.0054,0.0039,0.0038,0.0037,0.0004,0.0004,0.0004,0,0,0,0,0,0,0.0195,0.0195,0.0179,0.0179,0.0175,0.0148,0.015,0.0144,0.0143,0.0103,0.0096,0.0127,0.0069,0.0063,0.0064,0.0052,0.0037,0.0036,0.0004,0.0004,0.0004,0.0048,0,0,0,0,0,0,0.0195,0.0195,0.0193,0.018,0.0176,0.0194,0.015,0.0143,0.0144,0.014,0.0106,0.0099,0.0068,0.0066,0.0062,0.005,0.0034,0.0004,0.0004,0.0004,0.0046,0.0049,0.0052,0,0,0,0,0,0.0196,0.0207,0.0194,0.0193,0.0177,0.0196,0.0193,0.0168,0.0145,0.0161,0.0131,0.0101,0.0062,0.0066,0.0061,0.0048,0.0004,0.0004,0.0004,0.0045,0.0048,0.0052,0,0,0,0,0,0,0.0206,0.0203,0.0188,0.0196,0.0204,0.0189,0.0193,0.018,0.0168,0.0158,0.0117,0.011,0.0101,0.0076,0.0081,0.0037,0.0022,0.0021,0.0054,0.0058,0.006,0.0092,0.0033,0,0,0,0,0,0.0209,0.022,0.0216,0.0226,0.0229,0.0213,0.0212,0.0203,0.0193,0.0186,0.0157,0.0122,0.0096,0.0082,0.0061,0.0049,0.005,0.0031,0.0034,0.0037,0.0058,0.0068,0.0074,0.0005,0.0005,0.0005,0,0,0.0227,0.0217,0.0229,0.023,0.0225,0.0248,0.0211,0.0225,0.0236,0.0183,0.018,0.0141,0.01,0.008,0.0071,0.0057,0.0054,0.0037,0.0039,0.006,0.0069,0.0076,0.0082,0.0005,0.0005,0.0005,0,0,0.0269,0.0251,0.0277,0.0284,0.0285,0.0277,0.0289,0.028,0.0266,0.0265,0.0218,0.0188,0.0148,0.0113,0.009,0.0101,0.0076,0.0075,0.0106,0.0115,0.0121,0.0127,0.0127,0.0132,0.0067,0.0067,0.0067,0,0.0287,0.031,0.0291,0.0313,0.0325,0.0299,0.0336,0.0323,0.0313,0.031,0.0273,0.0212,0.0166,0.0148,0.0129,0.0109,0.0109,0.0096,0.0121,0.0127,0.0132,0.013,0.0136,0.0069,0.0069,0.0068,0.0068,0,0.0351,0.0366,0.0384,0.0401,0.0412,0.0443,0.0428,0.0428,0.0395,0.0378,0.0355,0.0286,0.0247,0.0211,0.0165,0.0165,0.0151,0.0133,0.0118,0.0142,0.0138,0.0143,0.0072,0.0071,0.007,0.007,0,0,0.0408,0.0428,0.0435,0.0455,0.0461,0.0484,0.0496,0.051,0.053,0.0473,0.0493,0.0396,0.0346,0.0316,0.0246,0.0233,0.024,0.0191,0.019,0.0202,0.0258,0.0163,0.0159,0.0227,0.0228,0.023,0.0237,0,0.0468,0.0527,0.0518,0.0583,0.0617,0.0594,0.0616,0.0616,0.0596,0.0606,0.052,0.0504,0.0389,0.0359,0.0325,0.028,0.0258,0.024,0.0225,0.0225,0.0146,0.0163,0.0169,0.0169,0.0242,0.0243,0.0243,0,0.0533,0.0563,0.0632,0.0673,0.0687,0.0714,0.0747,0.0763,0.0758,0.0738,0.0693,0.0636,0.0581,0.049,0.0414,0.0408,0.0332,0.029,0.0289,0.0194,0.0139,0.0158,0.0175,0.0252,0.0251,0.025,0.025,0,0.0583,0.0643,0.0698,0.0714,0.0755,0.0775,0.0793,0.0803,0.082,0.0822,0.0835,0.0766,0.0726,0.0644,0.05,0.0467,0.0446,0.0393,0.0239,0.0232,0.0233,0.0222,0.0355,0.0355,0.0355,0.0355,0.0355,0,0.0648,0.0692,0.0725,0.0758,0.0826,0.083,0.089,0.0899,0.0921,0.0966,0.0893,0.0912,0.0763,0.0711,0.058,0.0425,0.0498,0.0258,0.0232,0.0242,0.0233,0.0301,0.0295,0.0355,0.0355,0.0355,0.0355,0,0.069,0.0714,0.0777,0.083,0.0847,0.0892,0.0936,0.0984,0.0996,0.1057,0.1057,0.1026,0.0954,0.0808,0.0692,0.0515,0.0398,0.0322,0.0331,0.0303,0.0158,0.0154,0.0157,0.0154,0.0151,0.0149,0.0147,0,0.0715,0.0752,0.082,0.0856,0.0877,0.0933,0.0978,0.1009,0.1068,0.1129,0.1179,0.1128,0.108,0.0869,0.0617,0.039,0.0379,0.0211,0.0123,0.0166,0.0141,0.0141,0.014,0.0149,0.0147,0.0146,0.0145,0,0.0757,0.0772,0.082,0.0895,0.0949,0.1019,0.1091,0.1151,0.1208,0.1266,0.1346,0.1314,0.1088,0.0846,0.0503,0.0349,0.0242,0.0166,0.0262,0.0171,0.0151,0.0127,0.0129,0.0132,0.0133,0.0134,0.0135,0.0135,0.0766,0.0804,0.0856,0.0931,0.0998,0.1097,0.1171,0.1267,0.1368,0.1433,0.1422,0.1339,0.108,0.0595,0.0375,0.0129,0.0121,0.0001,0.001,0.0019,-0.001,-0.0036,-0.0096,-0.0096,-0.0096,-0.0096,-0.0096,0,0.0767,0.0811,0.0887,0.0981,0.1067,0.109,0.1241,0.1328,0.1469,0.1446,0.1448,0.1139,0.0853,0.0596,0.0197,-0.0062,-0.004,-0.012,-0.0029,-0.0017,-0.0006,-0.0033,-0.0126,-0.0126,-0.0127,-0.0127,0,0,0.0768,0.0827,0.0879,0.1015,0.1078,0.1198,0.1287,0.1417,0.1456,0.1429,0.1315,0.1151,0.0848,0.055,0.0268,0.0073,0.0081,0.0033,0.0074,0.0225,0.024,0.0072,0.0043,0,0,0,0,0]}],[{"header":{"parameterUnit":"m.s-1","parameterCategory":2,"la1":30.2991,"la2":30.254,"lo1":-89.0895,"lo2":-89.0444,"dy":0.0017,"dx":0.0017,"nx":28,"ny":28,"refTime":"2024-10-02T21:00:00:Z","depth":"4","parameterNumber":2,"parameterNumberName":"U-component_of_CURRENTS"},"data":[0,0,0,0,0,0,0,0,0,0,0,0,0,0,0,0,0,0,0,0,0,0,0,0,0,0,0,0,0,0,0,0,0,0,0,0,0,0,0,0,0,0,0,0,0,0,0,0,0,0,0,0,0,0,0,0,0,0,0.0866,0.0866,0,0.0892,0.0892,0.0892,0.093,0.0931,0.0932,0.0933,0.0943,0.0943,0.0942,0,0,0,0,0,0,0,0,0,0,0,0,0,0.0825,0.0826,0.0866,0.0866,0.0867,0.0892,0.0892,0.0892,0.093,0.0931,0.0932,0.0933,0.0944,0.0943,0.0942,0,0,0,0,0,0,0,0,0,0,0,0,0,0.0844,0.0826,0.0866,0.0891,0.0893,0.0892,0.0892,0.0892,0.093,0.0931,0.0933,0.0934,0.0944,0.0943,0.0942,0.091,0,0,0.094,0.0939,0,0,0,0,0,0,0,0,0.0843,0.0845,0.0887,0.0889,0.0892,0.0911,0.0881,0.0898,0.093,0.0914,0.0933,0.0935,0.0932,0.0932,0.0931,0.0911,0.0911,0.094,0.0939,0.0939,0.0938,0,0,0,0,0,0,0,0.0842,0.0844,0.0874,0.0887,0.089,0.0892,0.0896,0.0885,0.0913,0.0915,0.0919,0.0925,0.0933,0.0931,0.0931,0.0911,0.094,0.0939,0.0938,0.0938,0.0919,0.0919,0,0,0,0,0,0,0.0843,0.0843,0.0873,0.0875,0.0873,0.0892,0.0897,0.0902,0.0913,0.0917,0.0924,0.0926,0.0932,0.0932,0.0932,0.0964,0.0939,0.0938,0.0937,0.0919,0.0919,0.0919,0,0,0,0,0,0,0.0842,0.0845,0.0872,0.0861,0.0865,0.0892,0.0897,0.0902,0.0919,0.092,0.0924,0.0939,0.0933,0.0933,0.0947,0.0962,0.0938,0.0937,0.0919,0.0919,0.0919,0.0983,0,0,0,0,0,0,0.0841,0.0845,0.0855,0.0861,0.0866,0.0874,0.0896,0.0901,0.0921,0.0925,0.0934,0.0935,0.0934,0.0948,0.0946,0.096,0.0936,0.0919,0.0919,0.0919,0.0981,0.0986,0.0989,0,0,0,0,0,0.0839,0.0845,0.0855,0.0859,0.0877,0.0873,0.0875,0.0897,0.092,0.0919,0.0943,0.0936,0.0946,0.0948,0.0945,0.096,0.0919,0.0919,0.0919,0.0979,0.0985,0.0989,0,0,0,0,0,0,0.0834,0.0849,0.0861,0.0873,0.0875,0.0881,0.0892,0.0903,0.0919,0.0935,0.094,0.0942,0.0969,0.0943,0.0945,0.0951,0.0928,0.0928,0.0975,0.098,0.0984,0.1003,0.0935,0,0,0,0,0,0.0836,0.0847,0.0854,0.0865,0.0869,0.0882,0.0889,0.09,0.0913,0.0923,0.0931,0.094,0.096,0.0955,0.0964,0.0954,0.0946,0.0958,0.0962,0.0966,0.0977,0.0977,0.0983,0.0918,0.0918,0.0918,0,0,0.0834,0.0849,0.0854,0.0865,0.0875,0.0874,0.089,0.0901,0.0911,0.0919,0.0942,0.0964,0.0966,0.098,0.0984,0.0961,0.0979,0.0965,0.0969,0.0979,0.0978,0.0985,0.099,0.0918,0.0918,0.0918,0,0,0.0831,0.0853,0.0856,0.0859,0.0875,0.088,0.0885,0.0896,0.0916,0.0931,0.096,0.0984,0.0987,0.0998,0.1004,0.1021,0.1016,0.1025,0.1045,0.1045,0.1051,0.1056,0.1057,0.1062,0.1007,0.1007,0.1008,0,0.0826,0.0837,0.0854,0.0857,0.0866,0.0884,0.0884,0.0898,0.0914,0.0934,0.0944,0.0995,0.0993,0.1029,0.105,0.1032,0.1041,0.1033,0.1053,0.1058,0.1062,0.1062,0.1066,0.1011,0.101,0.101,0.101,0,0.0817,0.083,0.0834,0.0846,0.0856,0.0858,0.0879,0.0895,0.0925,0.0943,0.0998,0.1015,0.1041,0.1047,0.1063,0.1097,0.1099,0.1077,0.1048,0.1073,0.107,0.1074,0.1015,0.1014,0.1013,0.1012,0,0,0.0786,0.0818,0.0821,0.0833,0.0853,0.0858,0.0883,0.0906,0.0933,0.0966,0.1006,0.1055,0.1085,0.1094,0.1115,0.112,0.116,0.1124,0.1123,0.1139,0.1181,0.1114,0.1111,0.1159,0.116,0.1161,0.1169,0,0.0769,0.0778,0.0802,0.0813,0.0816,0.0849,0.0872,0.0904,0.0937,0.0976,0.1024,0.1076,0.1096,0.1133,0.1145,0.118,0.1173,0.1161,0.1142,0.1142,0.1091,0.1114,0.1164,0.1171,0.1172,0.1172,0.1173,0,0.0743,0.0759,0.0767,0.0809,0.0816,0.0834,0.0882,0.0907,0.0965,0.1001,0.106,0.1103,0.1168,0.1159,0.1214,0.1219,0.1206,0.1208,0.1207,0.1127,0.1082,0.1137,0.1179,0.1178,0.1178,0.1177,0.1177,0,0.0706,0.0735,0.0748,0.0757,0.08,0.0832,0.0869,0.0921,0.0962,0.1035,0.1072,0.1142,0.1203,0.1213,0.1242,0.1241,0.1277,0.1252,0.1166,0.1161,0.1192,0.1186,0.1245,0.1245,0.1245,0.1245,0.1245,0,0.0667,0.0678,0.0741,0.0746,0.0782,0.0829,0.0878,0.092,0.0995,0.1043,0.1103,0.1145,0.1226,0.1257,0.1253,0.1238,0.1277,0.1183,0.1161,0.1217,0.1214,0.1194,0.1189,0.1245,0.1245,0.1245,0.1245,0,0.0608,0.0645,0.0671,0.0738,0.0764,0.0801,0.0898,0.0923,0.1007,0.1071,0.1109,0.1189,0.1239,0.1273,0.1296,0.1251,0.123,0.1192,0.1266,0.1246,0.1111,0.1109,0.111,0.1108,0.1106,0.1104,0.1103,0,0.0572,0.0576,0.066,0.0685,0.0722,0.0788,0.082,0.0923,0.096,0.1078,0.1099,0.1185,0.1223,0.1211,0.1239,0.1218,0.1186,0.1161,0.113,0.112,0.1099,0.1099,0.1099,0.11,0.1099,0.1099,0.1098,0,0.0501,0.0544,0.0569,0.063,0.0681,0.0726,0.0798,0.0828,0.094,0.1026,0.1083,0.1107,0.1149,0.1173,0.1169,0.1138,0.1183,0.1141,0.1144,0.1115,0.1108,0.1089,0.1091,0.1092,0.1093,0.1093,0.1094,0,0.0456,0.0467,0.0518,0.0567,0.0621,0.0652,0.0701,0.0763,0.083,0.0978,0.099,0.1064,0.1152,0.1127,0.1114,0.1104,0.1077,0.1026,0.1035,0.1042,0.1014,0.0995,0.0932,0,0,0,0,0,0.0408,0.0414,0.0446,0.0506,0.0552,0.0593,0.0669,0.0721,0.0841,0.0864,0.094,0.0973,0.0997,0.1019,0.0992,0.1046,0.1056,0.1005,0.0996,0.1055,0.1063,0.1034,0,0,0,0,0,0,0.0375,0.0399,0.0423,0.0438,0.0463,0.0515,0.0564,0.064,0.0669,0.0793,0.0812,0.0908,0.0937,0.1013,0.0975,0.0981,0.0951,0.1058,0.1055,0.1051,0.1058,0.1064,0.1037,0,0,0,0,0]},{"header":{"parameterUnit":"m.s-1","parameterCategory":2,"la1":30.2991,"la2":30.254,"lo1":-89.0895,"lo2":-89.0444,"dy":0.0017,"dx":0.0017,"nx":28,"ny":28,"refTime":"2024-10-02T21:00:00:Z","depth":"4","parameterNumber":3,"parameterNumberName":"V-component_of_CURRENTS"},"data":[0,0,0,0,0,0,0,0,0,0,0,0,0,0,0,0,0,0,0,0,0,0,0,0,0,0,0,0,0,0,0,0,0,0,0,0,0,0,0,0,0,0,0,0,0,0,0,0,0,0,0,0,0,0,0,0,0,0,0.0223,0.0223,0,0.0205,0.0205,0.0205,0.0184,0.0184,0.0184,0.0183,0.0206,0.0206,0.0207,0,0,0,0,0,0,0,0,0,0,0,0,0,0.0222,0.0222,0.0223,0.0223,0.0223,0.0205,0.0205,0.0205,0.0184,0.0184,0.0184,0.0183,0.0205,0.0206,0.0207,0,0,0,0,0,0,0,0,0,0,0,0,0,0.0215,0.0222,0.0223,0.021,0.0209,0.0205,0.0205,0.0205,0.0185,0.0184,0.0184,0.0183,0.0205,0.0206,0.0208,0.0225,0,0,0.0212,0.0212,0,0,0,0,0,0,0,0,0.0216,0.0215,0.0212,0.0211,0.021,0.0196,0.0213,0.0214,0.0185,0.0194,0.0183,0.0183,0.0207,0.0208,0.0205,0.0226,0.0227,0.0212,0.0212,0.0213,0.0213,0,0,0,0,0,0,0,0.0216,0.0216,0.0216,0.0212,0.0211,0.0199,0.0198,0.0213,0.0204,0.0193,0.0192,0.019,0.0206,0.0204,0.0205,0.0227,0.0212,0.0213,0.0214,0.0214,0.0244,0.0244,0,0,0,0,0,0,0.022,0.0217,0.0217,0.0216,0.0212,0.02,0.0198,0.0201,0.0203,0.0202,0.019,0.0189,0.0202,0.0204,0.0206,0.0214,0.0213,0.0214,0.0215,0.0244,0.0244,0.0244,0,0,0,0,0,0,0.022,0.022,0.0217,0.0215,0.0214,0.0201,0.0204,0.0201,0.0204,0.02,0.02,0.0196,0.0201,0.0204,0.0212,0.0215,0.0215,0.0216,0.0244,0.0244,0.0244,0.0238,0,0,0,0,0,0,0.022,0.0221,0.0224,0.0216,0.0214,0.0222,0.0204,0.0201,0.0203,0.0201,0.0205,0.0206,0.0201,0.021,0.0213,0.0217,0.0217,0.0244,0.0244,0.0244,0.0238,0.0238,0.0237,0,0,0,0,0,0.022,0.0231,0.0224,0.0224,0.022,0.0223,0.0221,0.021,0.0204,0.0209,0.0201,0.0206,0.0212,0.0211,0.0215,0.0219,0.0244,0.0244,0.0244,0.0238,0.0238,0.0237,0,0,0,0,0,0,0.0236,0.023,0.0222,0.0231,0.0229,0.0219,0.0222,0.0217,0.0215,0.0215,0.0209,0.0209,0.0216,0.0221,0.022,0.0227,0.0228,0.0229,0.0223,0.0222,0.0222,0.0224,0.0218,0,0,0,0,0,0.0241,0.0246,0.0238,0.0246,0.0245,0.0236,0.0235,0.0231,0.0227,0.0226,0.0227,0.0225,0.0219,0.0223,0.0225,0.0236,0.0215,0.024,0.024,0.0239,0.0243,0.019,0.0185,0.0244,0.0244,0.0244,0,0,0.0251,0.0247,0.0251,0.025,0.0245,0.0249,0.0235,0.0241,0.0244,0.0231,0.0239,0.0229,0.0222,0.0222,0.0227,0.0227,0.0213,0.0239,0.0239,0.0243,0.019,0.0184,0.0178,0.0244,0.0244,0.0244,0,0,0.0274,0.0269,0.0279,0.0278,0.0274,0.0267,0.0272,0.0269,0.0265,0.0272,0.0252,0.0238,0.0253,0.023,0.0223,0.0226,0.0213,0.0236,0.0236,0.0185,0.0179,0.0174,0.0145,0.0137,0.0235,0.0235,0.0235,0,0.0283,0.0294,0.0284,0.0291,0.0291,0.0278,0.0289,0.0284,0.0284,0.0276,0.0279,0.0254,0.0251,0.0224,0.0222,0.0225,0.0201,0.0237,0.0183,0.0177,0.0172,0.0143,0.0134,0.0235,0.0235,0.0235,0.0235,0,0.0311,0.0317,0.0324,0.0324,0.0326,0.0335,0.0325,0.0325,0.032,0.0307,0.0289,0.0267,0.0249,0.0244,0.0238,0.0199,0.0197,0.0186,0.0181,0.0165,0.0136,0.0127,0.0234,0.0234,0.0235,0.0235,0,0,0.0333,0.0341,0.0344,0.0348,0.0344,0.035,0.035,0.034,0.0329,0.032,0.0298,0.0278,0.0256,0.0246,0.0224,0.0183,0.0128,0.0175,0.0172,0.0141,0.0026,0.0035,0.0026,0.0102,0.01,0.0099,0.0023,0,0.0355,0.0377,0.0374,0.0394,0.0401,0.0387,0.0386,0.0374,0.0353,0.0328,0.0287,0.0267,0.0259,0.0245,0.0199,0.0147,0.0104,0.0151,0.0051,0.0049,0.0053,0.0016,0.0094,0.0016,0.0014,0.0012,0.0011,0,0.0377,0.039,0.0416,0.0421,0.0423,0.0435,0.042,0.0418,0.0371,0.0354,0.031,0.0275,0.0221,0.0212,0.0109,0.0139,0.0088,0.0044,0.0039,0.0044,0.004,0.0034,-0.0005,-0.0004,-0.0003,-0.0002,-0.0001,0,0.0395,0.0414,0.0438,0.0442,0.0448,0.0459,0.0461,0.0429,0.0425,0.0367,0.035,0.027,0.0242,0.0155,0.0079,0.0089,-0.0042,-0.0045,-0.0088,-0.0088,-0.0069,-0.0063,-0.013,-0.013,-0.013,-0.0129,-0.0129,0,0.041,0.0429,0.0453,0.0467,0.0496,0.0489,0.0503,0.0484,0.0453,0.0441,0.037,0.0334,0.0226,0.0142,0.0065,-0.0035,-0.0056,-0.0095,-0.0115,-0.0067,-0.006,-0.0075,-0.0068,-0.0132,-0.0132,-0.0131,-0.0131,0,0.0423,0.0437,0.047,0.0496,0.0508,0.0533,0.0556,0.0551,0.0522,0.0499,0.0487,0.0384,0.0278,0.0163,0.002,-0.0038,-0.0146,-0.0178,-0.011,-0.0123,-0.0152,-0.0144,-0.0236,-0.0237,-0.0237,-0.0237,-0.0238,0,0.0429,0.0448,0.0501,0.0524,0.0544,0.058,0.0597,0.0593,0.0588,0.0529,0.0513,0.0408,0.0332,0.0138,0.0013,-0.0149,-0.0165,-0.0218,-0.0193,-0.0157,-0.0167,-0.0158,-0.0149,-0.0238,-0.0239,-0.0239,-0.0239,0,0.0441,0.0467,0.0496,0.0552,0.0589,0.0624,0.0649,0.0652,0.0634,0.0616,0.0538,0.0426,0.0299,0.0144,0.0018,-0.0098,-0.0186,-0.0223,-0.0222,-0.0199,-0.0161,-0.0168,-0.0159,-0.024,-0.024,-0.024,-0.024,0,0.045,0.0478,0.0522,0.0568,0.0616,0.0642,0.0659,0.0653,0.0655,0.0598,0.0572,0.0428,0.0351,0.0169,0.0046,-0.0064,-0.0085,-0.0112,-0.0117,-0.0117,-0.0059,0.0009,-0.0045,0,0,0,0,0,0.045,0.048,0.0526,0.0577,0.0622,0.0653,0.0674,0.0679,0.0673,0.0632,0.0607,0.049,0.03,0.0201,0.0095,0.0031,-0.0113,-0.0098,-0.0148,-0.0249,-0.0247,-0.0198,0,0,0,0,0,0,0.0451,0.0495,0.0525,0.0575,0.0606,0.0656,0.0672,0.0664,0.064,0.0618,0.0517,0.0477,0.0288,0.0373,0.01,0.0062,0.0017,-0.0185,-0.0187,-0.025,-0.0248,-0.0247,-0.0196,0,0,0,0,0]}]]